EW4210 Weather Reports


Display with metric or nautical units.
time (UTC)temp
F
wind
direction
speed
MPH
gust
MPH
rain 1hr
in
rain 24hr
in
rain mn
in
humidity
%
barometer
mb
20260904050013 81 98 0.0 0.0 0.00 0.00 0.00 75 1012.5
20260904044552 82 98 0.0 0.0 0.00 0.00 0.00 76 1012.5
20260904043031 82 98 0.0 0.0 0.00 0.00 0.00 77 1012.4
20260904041514 83 98 0.0 0.0 0.00 0.00 0.00 75 1012.4
20260904040055 83 98 0.0 0.0 0.00 0.00 0.00 73 1012.3
20260904040001 83 98 0.0 0.0 0.00 0.00 0.00 73 1012.3
20260904034540 84 98 0.0 0.0 0.00 0.00 0.00 71 1012.5
20260904033034 85 98 0.0 3.0 0.00 0.00 0.00 70 1012.5
20260904031558 85 89 0.0 2.0 0.00 0.00 0.00 70 1012.7
20260904030040 85 96 0.0 2.0 0.00 0.00 0.00 70 1012.7
20260904024520 86 117 0.0 2.0 0.00 0.00 0.00 69 1012.7
20260904023008 86 103 0.0 3.0 0.00 0.00 0.00 68 1012.4
20260904021544 86 75 0.0 2.0 0.00 0.00 0.00 68 1012.5
20260904020030 87 97 0.0 0.0 0.00 0.00 0.00 68 1012.3
20260904014510 87 101 0.0 3.0 0.00 0.00 0.00 67 1012.1
20260904013054 88 101 1.0 2.0 0.00 0.00 0.00 66 1012.0
20260904011529 88 94 0.0 2.0 0.00 0.00 0.00 66 1011.9
20260904010016 89 106 0.0 4.0 0.00 0.00 0.00 65 1011.8
20260904004601 89 90 1.0 3.0 0.00 0.00 0.00 64 1011.8
20260904003055 90 82 1.0 3.0 0.00 0.00 0.00 63 1011.7
20260904001525 90 101 1.0 4.0 0.00 0.00 0.00 62 1011.7
20260904000010 91 94 0.0 3.0 0.00 0.00 0.00 62 1011.4
20260903234547 92 75 1.0 3.0 0.00 0.00 0.00 59 1011.4
20260903233029 92 100 0.0 3.0 0.00 0.00 0.00 57 1011.3
20260903231510 92 92 1.0 4.0 0.00 0.00 0.00 57 1011.3
20260903230108 92 134 1.0 4.0 0.00 0.00 0.00 55 1011.4
20260903230002 92 88 0.0 3.0 0.00 0.00 0.00 56 1011.3
20260903224556 92 141 1.0 2.0 0.00 0.00 0.00 55 1011.2
20260903223038 93 108 1.0 4.0 0.00 0.00 0.00 53 1011.2
20260903221518 94 62 3.0 8.0 0.00 0.00 0.00 52 1011.1
20260903220105 93 117 1.0 3.0 0.00 0.00 0.00 52 1011.2
20260903214542 93 130 3.0 7.0 0.00 0.00 0.00 52 1011.4
20260903213020 94 91 2.0 10.0 0.00 0.00 0.00 52 1011.7
20260903211555 94 67 2.0 9.0 0.00 0.00 0.00 51 1011.8
20260903210033 94 86 2.0 9.0 0.00 0.00 0.00 51 1011.7
20260903204515 95 142 1.0 7.0 0.00 0.00 0.00 56 1012.0
20260903203057 95 77 1.0 7.0 0.00 0.00 0.00 52 1012.2
20260903201536 95 50 2.0 7.0 0.00 0.00 0.00 52 1012.4
20260903200017 95 138 2.0 6.0 0.00 0.00 0.00 50 1012.5
20260903194601 95 55 1.0 6.0 0.00 0.00 0.00 52 1012.6
20260903193035 95 253 2.0 8.0 0.00 0.00 0.00 53 1012.7
20260903191515 95 96 1.0 8.0 0.00 0.00 0.00 50 1013.0
20260903190054 95 67 3.0 8.0 0.00 0.00 0.00 52 1013.1
20260903184534 94 60 1.0 4.0 0.00 0.00 0.00 54 1013.2
20260903183013 93 85 5.0 11.0 0.00 0.00 0.00 55 1013.4
20260903181604 93 5 2.0 8.0 0.00 0.00 0.00 57 1013.6
20260903180053 93 265 1.0 7.0 0.00 0.00 0.00 56 1013.8
20260903174517 92 175 1.0 8.0 0.00 0.00 0.00 57 1014.2
20260903173104 92 153 3.0 7.0 0.00 0.00 0.00 57 1014.3
20260903171539 93 5 2.0 5.0 0.00 0.00 0.00 57 1014.5
20260903170025 92 284 0.0 6.0 0.00 0.00 0.00 63 1014.7
20260903164557 91 138 2.0 6.0 0.00 0.00 0.00 61 1014.9
20260903163042 91 235 1.0 5.0 0.00 0.00 0.00 60 1015.1
20260903161527 90 250 1.0 4.0 0.00 0.00 0.00 60 1015.1
20260903160055 90 157 2.0 5.0 0.00 0.00 0.00 61 1015.1
20260903154547 89 242 0.0 3.0 0.00 0.00 0.00 63 1015.3
20260903153018 89 290 0.0 4.0 0.00 0.00 0.00 62 1015.3
20260903151555 88 116 0.0 4.0 0.00 0.00 0.00 63 1015.3
20260903151501 88 116 0.0 4.0 0.00 0.00 0.00 63 1015.2
20260903150043 87 146 0.0 3.0 0.00 0.00 0.00 67 1015.3
20260903144522 87 250 1.0 3.0 0.00 0.00 0.00 65 1015.3
20260903143054 86 193 1.0 3.0 0.00 0.00 0.00 67 1015.3
20260903141535 85 190 1.0 3.0 0.00 0.00 0.00 72 1015.5
20260903140013 85 187 0.0 2.0 0.00 0.00 0.00 72 1015.5
20260903134550 83 161 0.0 2.0 0.00 0.00 0.00 77 1015.6
20260903133024 82 162 0.0 0.0 0.00 0.00 0.00 81 1015.5
20260903131506 81 140 0.0 0.0 0.00 0.00 0.00 84 1015.5
20260903130051 78 98 0.0 0.0 0.00 0.00 0.00 88 1015.5
20260903124526 76 88 0.0 0.0 0.00 0.00 0.00 93 1015.3
20260903123009 74 88 0.0 0.0 0.00 0.00 0.00 94 1015.1
20260903121548 74 88 0.0 0.0 0.00 0.00 0.00 93 1015.2
20260903120030 74 88 0.0 0.0 0.00 0.00 0.00 93 1015.0
20260903114518 74 88 0.0 0.0 0.00 0.00 0.00 92 1014.8
20260903113107 74 88 0.0 0.0 0.00 0.00 0.00 92 1014.7
20260903111542 74 88 0.0 0.0 0.00 0.00 0.00 92 1014.6
20260903110024 75 88 0.0 0.0 0.00 0.00 0.00 92 1014.4
20260903104506 75 88 0.0 0.0 0.00 0.00 0.00 92 1014.3
20260903103042 75 88 0.0 0.0 0.00 0.00 0.00 91 1014.2
20260903101525 75 88 0.0 0.0 0.00 0.00 0.00 91 1014.2
20260903100104 75 88 0.0 0.0 0.00 0.00 0.00 90 1014.1
20260903100002 75 88 0.0 0.0 0.00 0.00 0.00 90 1014.2
20260903094544 76 88 0.0 0.0 0.00 0.00 0.00 90 1014.1
20260903093040 76 88 0.0 0.0 0.00 0.00 0.00 89 1014.0
20260903091503 76 88 0.0 0.0 0.00 0.00 0.00 88 1013.9
20260903090044 77 88 0.0 0.0 0.00 0.00 0.00 87 1013.9
20260903084530 77 88 0.0 0.0 0.00 0.00 0.00 86 1013.8
20260903083004 78 88 0.0 0.0 0.00 0.00 0.00 86 1013.8
20260903081541 78 88 0.0 0.0 0.00 0.00 0.00 85 1013.6
20260903080019 78 88 0.0 0.0 0.00 0.00 0.00 85 1013.7
20260903074559 78 88 0.0 0.0 0.00 0.00 0.00 84 1013.7
20260903073032 79 88 0.0 0.0 0.00 0.00 0.00 84 1013.7
20260903071517 79 88 0.0 0.0 0.00 0.00 0.00 83 1013.6
20260903070047 79 88 0.0 0.0 0.00 0.00 0.00 82 1013.9
20260903064527 80 88 0.0 0.0 0.00 0.00 0.00 81 1013.9
20260903063008 80 88 0.0 0.0 0.00 0.00 0.00 80 1013.8
20260903061551 80 88 0.0 0.0 0.00 0.00 0.00 79 1013.7
20260903060031 80 88 0.0 0.0 0.00 0.00 0.00 80 1014.0
20260903054523 79 88 0.0 0.0 0.00 0.00 0.00 82 1013.9
20260903053003 80 88 0.0 0.0 0.00 0.00 0.00 81 1013.9
20260903051541 80 88 0.0 0.0 0.00 0.00 0.00 81 1013.7